TimeCDT,TemperatureF,Dew PointF,Humidity,Sea Level PressureIn,VisibilityMPH,Wind Direction,Wind SpeedMPH,Gust SpeedMPH,PrecipitationIn,Events,Conditions,WindDirDegrees,DateUTC
12:53 AM,41.0,37.9,89,30.24,10.0,Calm,Calm,-,N/A,,Clear,0,2013-10-13 05:53:00
1:53 AM,41.0,39.0,93,30.25,10.0,SSW,3.5,-,N/A,,Clear,210,2013-10-13 06:53:00
2:53 AM,39.0,37.0,93,30.27,10.0,Calm,Calm,-,N/A,,Clear,0,2013-10-13 07:53:00
3:53 AM,39.0,36.0,89,30.29,10.0,SW,3.5,-,N/A,,Clear,230,2013-10-13 08:53:00
4:53 AM,37.9,36.0,93,30.31,9.0,SW,3.5,-,N/A,,Clear,230,2013-10-13 09:53:00
5:53 AM,37.0,35.1,93,30.34,9.0,SW,3.5,-,N/A,,Clear,220,2013-10-13 10:53:00
6:53 AM,37.0,35.1,93,30.36,8.0,SW,3.5,-,N/A,,Clear,230,2013-10-13 11:53:00
7:53 AM,37.0,35.1,93,30.39,8.0,Calm,Calm,-,N/A,,Clear,0,2013-10-13 12:53:00
8:53 AM,43.0,39.0,86,30.42,9.0,SW,4.6,-,N/A,,Clear,220,2013-10-13 13:53:00
9:53 AM,50.0,39.9,68,30.44,10.0,Calm,Calm,-,N/A,,Clear,0,2013-10-13 14:53:00
10:53 AM,57.9,37.9,47,30.44,10.0,North,-9999.0,-,N/A,,Clear,0,2013-10-13 15:53:00
11:53 AM,61.0,36.0,39,30.44,10.0,WNW,4.6,-,0.00,,Clear,290,2013-10-13 16:53:00
12:53 PM,61.0,33.1,35,30.43,10.0,West,5.8,-,0.00,,Clear,260,2013-10-13 17:53:00
1:53 PM,64.0,32.0,30,30.40,10.0,Variable,5.8,-,N/A,,Clear,0,2013-10-13 18:53:00
2:53 PM,64.9,30.9,28,30.38,10.0,WNW,8.1,-,N/A,,Clear,300,2013-10-13 19:53:00
3:53 PM,64.0,30.0,28,30.38,10.0,North,3.5,-,N/A,,Clear,350,2013-10-13 20:53:00
4:53 PM,64.0,30.0,28,30.38,10.0,NNW,5.8,-,N/A,,Clear,340,2013-10-13 21:53:00
5:53 PM,60.1,30.9,33,30.40,10.0,NW,3.5,-,N/A,,Clear,310,2013-10-13 22:53:00
6:53 PM,48.0,37.9,68,30.41,10.0,Calm,Calm,-,N/A,,Clear,0,2013-10-13 23:53:00
7:53 PM,43.0,36.0,76,30.42,10.0,Calm,Calm,-,N/A,,Clear,0,2013-10-14 00:53:00
8:53 PM,39.9,36.0,86,30.42,10.0,Calm,Calm,-,N/A,,Clear,0,2013-10-14 01:53:00
9:53 PM,39.0,35.1,86,30.43,10.0,Calm,Calm,-,N/A,,Clear,0,2013-10-14 02:53:00
10:53 PM,36.0,34.0,93,30.44,10.0,Calm,Calm,-,N/A,,Clear,0,2013-10-14 03:53:00
11:53 PM,35.1,34.0,96,30.44,10.0,Calm,Calm,-,N/A,,Clear,0,2013-10-14 04:53:00